• In Lithuania
  • List of Countries
  • For 7 days
  • Water Temperature
  • Satellite Maps
  • Weather Map
  • Weather Widgets
  • user-avatar
    Login

    Hourly Weather Maracay

    Today, 23 May, Wednesday

    Time Temperature Precipitation Wind Pressure Humidity
    00:00 +24°C° 0.1 mm 2 mps 712 mmHg 86%
    01:00 +24°C° 0.1 mm 2 mps 712 mmHg 87%
    02:00 +24°C° 0 mm 2 mps 712 mmHg 86%
    03:00 +23°C° 0 mm 2 mps 712 mmHg 86%
    04:00 +23°C° 0 mm 2 mps 712 mmHg 85%
    05:00 +24°C° 0 mm 2 mps 712 mmHg 82%
    06:00 +25°C° 0 mm 2 mps 713 mmHg 79%
    07:00 +25°C° 0 mm 2 mps 713 mmHg 75%
    08:00 +27°C° 0 mm 2 mps 713 mmHg 69%
    09:00 +28°C° 0 mm 2 mps 714 mmHg 62%
    10:00 +30°C° 0 mm 2 mps 714 mmHg 56%
    11:00 +31°C° 0 mm 3 mps 713 mmHg 55%
    12:00 +31°C° 0 mm 3 mps 713 mmHg 53%
    13:00 +33°C° 0 mm 3 mps 712 mmHg 52%
    14:00 +31°C° 0 mm 3 mps 712 mmHg 54%
    15:00 +31°C° 0 mm 3 mps 712 mmHg 57%
    16:00 +30°C° 0 mm 3 mps 711 mmHg 59%
    17:00 +29°C° 0 mm 2 mps 711 mmHg 66%
    18:00 +27°C° 0 mm 2 mps 712 mmHg 72%
    19:00 +26°C° 0 mm 2 mps 712 mmHg 78%
    20:00 +26°C° 0 mm 2 mps 712 mmHg 80%
    21:00 +25°C° 0 mm 2 mps 712 mmHg 82%
    22:00 +25°C° 0 mm 2 mps 713 mmHg 84%
    23:00 +24°C° 0 mm 1 mps 713 mmHg 84%

    Tomorrow, 24 May, Thursday

    Time Temperature Precipitation Wind Pressure Humidity
    00:00 +24°C° 0 mm 1 mps 712 mmHg 84%
    01:00 +24°C° 0 mm 1 mps 712 mmHg 84%
    02:00 +24°C° 0 mm 1 mps 712 mmHg 84%
    03:00 +24°C° 0 mm 1 mps 712 mmHg 83%
    04:00 +24°C° 0 mm 1 mps 712 mmHg 82%
    05:00 +25°C° 0 mm 1 mps 712 mmHg 79%
    06:00 +25°C° 0 mm 1 mps 713 mmHg 76%
    07:00 +26°C° 0 mm 1 mps 713 mmHg 72%
    08:00 +28°C° 0 mm 2 mps 714 mmHg 68%
    09:00 +29°C° 0 mm 2 mps 714 mmHg 63%
    10:00 +31°C° 0 mm 3 mps 714 mmHg 59%
    11:00 +31°C° 0.5 mm 3 mps 713 mmHg 59%
    12:00 +31°C° 0.5 mm 3 mps 713 mmHg 60%
    13:00 +31°C° 0.5 mm 3 mps 712 mmHg 61%
    14:00 +30°C° 0.8 mm 3 mps 712 mmHg 64%
    15:00 +30°C° 0.8 mm 2 mps 711 mmHg 67%
    16:00 +29°C° 0.8 mm 2 mps 710 mmHg 70%
    17:00 +28°C° 0.2 mm 2 mps 711 mmHg 74%
    18:00 +27°C° 0.2 mm 2 mps 711 mmHg 78%
    19:00 +26°C° 0.2 mm 2 mps 712 mmHg 82%
    20:00 +25°C° 0.1 mm 2 mps 712 mmHg 83%
    21:00 +25°C° 0.1 mm 1 mps 712 mmHg 84%
    22:00 +25°C° 0.1 mm 1 mps 713 mmHg 85%
    23:00 +25°C° 0 mm 1 mps 712 mmHg 85%

    Day after tomorrow, 25 May, Friday

    Time Temperature Precipitation Wind Pressure Humidity
    00:00 +24°C° 0 mm 1 mps 712 mmHg 85%
    01:00 +24°C° 0 mm 1 mps 711 mmHg 84%
    02:00 +24°C° 0 mm 1 mps 711 mmHg 84%
    03:00 +24°C° 0 mm 1 mps 711 mmHg 84%
    04:00 +24°C° 0 mm 1 mps 711 mmHg 84%
    05:00 +24°C° 0 mm 1 mps 712 mmHg 82%
    06:00 +25°C° 0 mm 1 mps 712 mmHg 79%
    07:00 +26°C° 0 mm 1 mps 713 mmHg 77%
    08:00 +27°C° 0 mm 2 mps 713 mmHg 71%
    09:00 +29°C° 0 mm 2 mps 713 mmHg 66%
    10:00 +30°C° 0 mm 2 mps 713 mmHg 60%
    11:00 +31°C° 0 mm 3 mps 713 mmHg 57%
    12:00 +33°C° 0 mm 3 mps 712 mmHg 54%
    13:00 +33°C° 0 mm 3 mps 712 mmHg 50%
    14:00 +33°C° 0 mm 3 mps 711 mmHg 53%
    15:00 +31°C° 0 mm 3 mps 710 mmHg 56%
    16:00 +30°C° 0 mm 3 mps 710 mmHg 59%
    17:00 +28°C° 0 mm 2 mps 710 mmHg 68%
    18:00 +27°C° 0 mm 2 mps 710 mmHg 76%
    19:00 +25°C° 0 mm 1 mps 711 mmHg 85%
    20:00 +25°C° 0 mm 1 mps 711 mmHg 86%
    21:00 +25°C° 0 mm 1 mps 712 mmHg 86%
    22:00 +24°C° 0 mm 1 mps 712 mmHg 87%
    23:00 +24°C° 0 mm 1 mps 712 mmHg 87%

    26 May, Saturday

    Time Temperature Precipitation Wind Pressure Humidity
    00:00 +24°C° 0 mm 1 mps 711 mmHg 87%
    01:00 +24°C° 0 mm 1 mps 711 mmHg 86%
    02:00 +24°C° 0.1 mm 1 mps 711 mmHg 85%
    03:00 +24°C° 0.1 mm 1 mps 711 mmHg 84%
    04:00 +24°C° 0.1 mm 1 mps 711 mmHg 84%
    05:00 +24°C° 0 mm 1 mps 711 mmHg 82%
    06:00 +25°C° 0 mm 1 mps 712 mmHg 81%
    07:00 +25°C° 0 mm 1 mps 712 mmHg 80%
    08:00 +27°C° 0 mm 2 mps 712 mmHg 74%
    09:00 +28°C° 0 mm 2 mps 712 mmHg 68%
    10:00 +30°C° 0 mm 2 mps 713 mmHg 62%
    11:00 +30°C° 0.4 mm 2 mps 712 mmHg 64%
    12:00 +30°C° 0.4 mm 2 mps 711 mmHg 66%
    13:00 +30°C° 0.4 mm 3 mps 711 mmHg 68%
    14:00 +29°C° 1.3 mm 2 mps 710 mmHg 72%
    15:00 +28°C° 1.3 mm 2 mps 710 mmHg 75%
    16:00 +28°C° 1.3 mm 2 mps 710 mmHg 78%
    17:00 +27°C° 0.3 mm 2 mps 710 mmHg 82%
    18:00 +26°C° 0.3 mm 2 mps 710 mmHg 86%
    19:00 +25°C° 0.3 mm 1 mps 711 mmHg 90%
    20:00 +25°C° 0.1 mm 1 mps 711 mmHg 90%
    21:00 +24°C° 0.1 mm 1 mps 711 mmHg 90%
    22:00 +24°C° 0.1 mm 2 mps 712 mmHg 91%
    23:00 +24°C° 0.1 mm 1 mps 711 mmHg 91%

    27 May, Sunday

    Time Temperature Precipitation Wind Pressure Humidity
    00:00 +24°C° 0.1 mm 1 mps 711 mmHg 91%
    01:00 +24°C° 0.1 mm 1 mps 711 mmHg 91%
    02:00 +23°C° 0 mm 1 mps 711 mmHg 91%
    03:00 +23°C° 0 mm 1 mps 711 mmHg 90%
    04:00 +23°C° 0 mm 1 mps 711 mmHg 90%
    05:00 +24°C° 0 mm 1 mps 711 mmHg 86%
    06:00 +25°C° 0 mm 2 mps 712 mmHg 83%
    07:00 +26°C° 0 mm 2 mps 712 mmHg 79%
    08:00 +27°C° 0 mm 2 mps 712 mmHg 74%
    09:00 +29°C° 0 mm 2 mps 712 mmHg 68%
    10:00 +30°C° 0 mm 2 mps 713 mmHg 63%
    11:00 +30°C° 0.4 mm 3 mps 712 mmHg 64%
    12:00 +30°C° 0.4 mm 3 mps 711 mmHg 65%
    13:00 +30°C° 0.4 mm 3 mps 711 mmHg 66%
    14:00 +30°C° 0.5 mm 3 mps 710 mmHg 67%
    15:00 +30°C° 0.5 mm 3 mps 710 mmHg 69%
    16:00 +29°C° 0.5 mm 2 mps 710 mmHg 70%
    17:00 +28°C° 0 mm 2 mps 710 mmHg 75%
    18:00 +27°C° 0 mm 2 mps 711 mmHg 79%
    19:00 +26°C° 0 mm 2 mps 711 mmHg 83%
    20:00 +25°C° 0 mm 2 mps 711 mmHg 84%
    21:00 +25°C° 0 mm 2 mps 712 mmHg 85%
    22:00 +25°C° 0 mm 2 mps 712 mmHg 86%
    23:00 +24°C° 0 mm 2 mps 712 mmHg 86%

    28 May, Monday

    Time Temperature Precipitation Wind Pressure Humidity
    00:00 +24°C° 0 mm 2 mps 711 mmHg 87%
    01:00 +24°C° 0 mm 2 mps 711 mmHg 87%
    02:00 +24°C° 0 mm 2 mps 711 mmHg 87%
    03:00 +23°C° 0 mm 2 mps 711 mmHg 87%
    04:00 +23°C° 0 mm 2 mps 711 mmHg 87%
    05:00 +24°C° 0 mm 2 mps 712 mmHg 85%
    06:00 +25°C° 0 mm 2 mps 712 mmHg 82%
    07:00 +26°C° 0 mm 2 mps 713 mmHg 79%
    08:00 +27°C° 0 mm 2 mps 713 mmHg 73%
    09:00 +29°C° 0 mm 2 mps 713 mmHg 66%
    10:00 +30°C° 0 mm 2 mps 713 mmHg 60%
    11:00 +31°C° 0 mm 3 mps 713 mmHg 58%
    12:00 +31°C° 0 mm 3 mps 712 mmHg 56%
    13:00 +33°C° 0 mm 3 mps 711 mmHg 54%
    14:00 +31°C° 0.1 mm 3 mps 711 mmHg 56%
    15:00 +31°C° 0.1 mm 3 mps 711 mmHg 58%
    16:00 +30°C° 0.1 mm 3 mps 710 mmHg 60%
    17:00 +29°C° 0 mm 2 mps 710 mmHg 66%
    18:00 +27°C° 0 mm 2 mps 711 mmHg 72%
    19:00 +26°C° 0 mm 2 mps 711 mmHg 78%
    20:00 +25°C° 0 mm 2 mps 711 mmHg 80%
    21:00 +25°C° 0 mm 1 mps 712 mmHg 81%
    22:00 +25°C° 0 mm 1 mps 712 mmHg 82%
    23:00 +24°C° 0 mm 1 mps 712 mmHg 82%
    Show more